Weather History for Peoria, IL

Change the Weather History Date:

Saturday, November 12, 2011

  Actual Average Record
Temperature  
Mean Temperature 48 °F 44 °F  
Max Temperature 62 °F 52 °F 75 °F (1902)
Min Temperature 33 °F 35 °F 9 °F (1986)
Degree Days  
Heating Degree Days 17 21  
Month to date heating degree days 199 227  
Since 1 July heating degree days 645 673  
Cooling Degree Days 0 0  
Month to date cooling degree days 0 0  
Year to date cooling degree days 1265 1039  
Moisture  
Dew Point 37 °F    
Average Humidity 63    
Maximum Humidity 89    
Minimum Humidity 36    
Precipitation  
Precipitation 0.00 in 0.10 in 0.94 in (1951)
Month to date precipitation 3.01 1.23  
Year to date precipitation 35.30 32.17  
Snow  
Snow 0.00 in 0.00 in 3.40 in (1959)
Month to date snowfall T 0.1  
Since 1 July snowfall T 0.1  
Since 1 September snowfall T 0.1  
Snow Depth 0.00 in    
Sea Level Pressure  
Sea Level Pressure 29.74 in    
Wind  
Wind Speed 14 mph (South)    
Max Wind Speed 25 mph    
Max Gust Speed 35 mph    
Visibility 10 miles    
Events      
T = Trace of Precipitation, MM = Missing Value Source: NWS Daily Summary

Daily Weather History Graph

Daily Weather History Graph

Search for Another Location

Airport:

Trip Planner

Search our weather history database for the weather conditions in past years. The results will help you decide how hot, cold, wet, or windy it might be!

Date:

Astronomy

Nov. 12, 2011 Rise Set
Actual Time 6:41 AM CST 4:43 PM CST
Civil Twilight 6:12 AM CST 5:12 PM CST
Nautical Twilight 5:39 AM CST 5:45 PM CST
Astronomical Twilight 5:07 AM CST 6:17 PM CST
Moon 5:59 PM CST (11/12) 8:24 AM CST (11/12)
Length of Visible Light 11h 00m
Length of Day
10h 02m
Full, 97% of the Moon is Illuminated
Nov 12
Full
Nov 18
Last Quarter
Nov 25
New
Dec 2
First Quarter
Dec 10
Full

Hourly Weather History & Observations

Time (CST) Temp. Windchill Dew Point Humidity Pressure Visibility Wind Dir Wind Speed Gust Speed Precip Events Conditions
12:54 AM 36.0 °F 32.1 °F 32.0 °F 86% 29.81 in 10.0 mi South 4.6 mph - N/A   Clear
1:54 AM 37.0 °F 34.5 °F 32.0 °F 82% 29.81 in 10.0 mi South 3.5 mph - N/A   Clear
2:54 AM 37.0 °F 34.5 °F 32.0 °F 82% 29.81 in 10.0 mi SSW 3.5 mph - N/A   Clear
3:54 AM 35.6 °F 31.7 °F 32.0 °F 87% 29.79 in 10.0 mi South 4.6 mph - N/A   Clear
4:54 AM 37.0 °F 31.6 °F 30.9 °F 79% 29.82 in 10.0 mi South 6.9 mph - N/A   Clear
5:54 AM 37.9 °F 34.4 °F 32.0 °F 79% 29.83 in 10.0 mi South 4.6 mph - N/A   Clear
6:54 AM 36.0 °F 30.3 °F 30.9 °F 82% 29.84 in 10.0 mi South 6.9 mph - N/A   Clear
7:54 AM 42.1 °F 37.1 °F 34.0 °F 73% 29.84 in 10.0 mi South 8.1 mph - N/A   Clear
8:54 AM 46.9 °F - 34.0 °F 61% 29.85 in 10.0 mi SSW 12.7 mph - N/A   Clear
9:54 AM 52.0 °F - 35.1 °F 53% 29.83 in 10.0 mi SSW 17.3 mph 24.2 mph N/A   Clear
10:54 AM 55.0 °F - 34.0 °F 45% 29.83 in 10.0 mi SSW 13.8 mph - N/A   Clear
11:54 AM 57.0 °F - 34.0 °F 42% 29.78 in 10.0 mi South 19.6 mph 26.5 mph N/A   Clear
12:54 PM 60.8 °F - 35.6 °F 39% 29.73 in 10.0 mi South 16.1 mph 26.5 mph N/A   Clear
1:54 PM 62.1 °F - 36.0 °F 38% 29.71 in 10.0 mi South 19.6 mph - N/A   Clear
2:54 PM 59.0 °F - 37.9 °F 46% 29.69 in 10.0 mi South 17.3 mph 25.3 mph N/A   Clear
3:54 PM 57.0 °F - 37.0 °F 47% 29.68 in 10.0 mi South 24.2 mph 29.9 mph N/A   Clear
4:54 PM 54.0 °F - 35.1 °F 49% 29.68 in 10.0 mi South 18.4 mph 31.1 mph N/A   Clear
5:54 PM 53.1 °F - 37.9 °F 57% 29.67 in 10.0 mi South 15.0 mph 24.2 mph N/A   Clear
6:54 PM 53.1 °F - 41.0 °F 64% 29.65 in 10.0 mi South 20.7 mph 28.8 mph N/A   Clear
7:54 PM 53.6 °F - 44.6 °F 72% 29.64 in 10.0 mi South 20.7 mph 31.1 mph N/A   Clear
8:54 PM 53.1 °F - 45.0 °F 74% 29.64 in 10.0 mi South 17.3 mph 29.9 mph N/A   Clear
9:54 PM 54.0 °F - 46.0 °F 75% 29.62 in 10.0 mi South 21.9 mph 28.8 mph N/A   Overcast
10:54 PM 55.0 °F - 46.9 °F 74% 29.59 in 10.0 mi South 18.4 mph - N/A   Overcast
11:54 PM 55.0 °F - 46.9 °F 74% 29.57 in 10.0 mi South 13.8 mph 24.2 mph N/A   Partly Cloudy